Location: ???�??????
(48.3670°N, 34.2785°E)
Time: 11:20:35
(UTC+00:00)

Daily predictions for brighter satellites

Satellite Brightness Start Highest point End
(mag) Time Altitude Azimuth Time Altitude Azimuth Time Altitude Azimuth
MOS 1 Rocket 3.8 17:23:21 10° N 17:28:50 81° WNW 17:34:07 10° SSW
Cosmos 1140 Rocket 3.8 17:24:33 10° S 17:29:33 47° ESE 17:34:34 10° NNE
Intercosmos 25 3.3 17:26:12 10° N 17:30:12 56° ENE 17:33:22 10° SSE
Cosmos 1818 4.2 17:25:14 10° NW 17:30:35 56° WSW 17:35:53 10° SSE
MetOp-A 4.2 17:25:34 10° SSE 17:30:55 77° ENE 17:36:18 10° NNW
Cosmos 2360 Rocket 4.3 17:30:01 10° N 17:33:13 15° NE 17:36:24 10° ENE
ATLAS 5 CENTAUR R/B 3.8 17:29:28 10° NW 17:34:42 35° WSW 17:40:39 10° S
USA 276 2.5 17:35:13 10° W 17:38:23 61° N 17:41:32 10° E
Cosmos 921 Rocket 3.9 17:36:26 10° N 17:40:13 31° ENE 17:43:58 10° SE
Cosmos 1707 Rocket 3.5 17:37:49 10° N 17:42:10 68° E 17:46:28 10° SSE
X-37B 1.1 17:39:40 10° WSW 17:42:43 44° S 17:45:47 10° ESE
Cosmos 1980 Rocket 2.3 17:37:36 10° NNW 17:43:18 71° ENE 17:48:55 10° SE
FALCON 9 DEB 3.1 17:42:09 10° WSW 17:45:39 83° SSE 17:49:10 10° ENE
Genesis I 3.3 17:44:46 10° NW 17:48:39 76° SW 17:52:31 10° SSE
NOSS 3-2 (A) 3.7 17:44:03 10° S 17:49:19 41° ESE 17:55:17 10° NE
CZ-2C R/B 3.8 17:45:56 10° NNE 17:50:27 53° E 17:54:51 10° S
Cosmos 614 Rocket 4.4 17:45:40 10° SSW 17:50:49 70° WNW 17:56:04 10° NNE
USA 186 3.7 17:49:35 10° SW 17:51:18 19° W 17:53:01 10° NW
OBJECT-B 0.8 17:48:18 10° SSE 17:51:35 90° WSW 17:54:54 10° NNW
USA 267 3.9 17:47:16 10° ENE 17:52:53 30° SE 17:58:29 10° S
Cosmos 1833 Rocket 2.9 17:49:22 10° SSW 17:55:00 79° WNW 18:00:40 10° NNE
Cosmos 1470 Rocket 4.4 17:52:06 10° SSE 17:55:58 31° E 17:59:50 10° NNE
Cosmos 1697 Rocket 3.4 17:51:06 10° NW 17:56:35 54° WSW 18:02:01 10° S
NOSS 3-2 (C) 4.1 17:53:51 10° S 17:58:45 30° ESE 18:04:11 10° NE
H-2A R/B 4.3 17:57:24 10° SSW 18:01:30 24° W 18:05:33 10° NW
SJ-6B 4.2 17:58:18 10° SSW 18:02:05 39° W 18:05:49 10° NNW
Sich 1 3.3 17:58:00 10° SSW 18:02:26 74° W 18:06:54 10° N
Meteor 1-4 Rocket 2.4 18:00:05 10° N 18:03:34 86° E 18:07:01 10° SSE
SPOT 5 4.4 18:01:26 11° E 18:04:13 18° ENE 18:07:13 10° NNE
Cosmos 1184 Rocket 3.1 18:01:35 10° S 18:04:45 44° E 18:07:56 10° NNE
Cosmos 1934 Rocket 4.1 17:59:49 10° S 18:06:07 67° E 18:12:27 10° NNE
SPOT 1/Viking Rocket 4.3 18:04:26 13° SE 18:08:35 38° ENE 18:13:23 10° N
Cosmos 1862 Rocket 3.6 18:05:08 10° N 18:09:36 65° E 18:13:46 11° SSE
Cosmos 405 Rocket 3.7 18:07:15 14° SE 18:09:42 27° E 18:12:54 10° NNE
Cosmos 2333 Rocket 4.4 18:07:16 10° N 18:10:09 14° NNE 18:13:02 10° ENE
Cosmos 1437 Rocket 4.1 18:09:31 10° NNE 18:12:39 24° ENE 18:14:34 16° ESE
SL-27 R/B 4.3 18:13:03 13° E 18:13:03 13° E 18:14:20 10° ENE
Cosmos 1812 4.5 18:09:26 10° NNW 18:12:54 33° W 18:16:21 10° SSW
USA 32 4.3 18:08:03 10° SSE 18:13:04 50° E 18:18:07 10° NNE
Landsat 7 4.3 18:09:52 14° SE 18:13:40 46° ENE 18:18:13 10° N
Resurs 01 Rocket 1.6 18:10:35 10° SSE 18:15:00 87° WSW 18:19:29 10° NNW
NOSS 2 (A) 4.2 18:14:10 10° NW 18:16:45 66° SW 18:17:59 24° SSE
Meteor 1-27 Rocket 4.4 18:11:38 10° NNW 18:17:29 61° W 18:23:19 10° S
Cosmos 676 Rocket 4.0 18:12:57 10° SSW 18:18:16 76° ESE 18:23:38 10° NNE
ERS-1 Rocket 4.0 18:16:12 16° ESE 18:19:29 32° ENE 18:23:54 10° N
GP-B 3.2 18:19:10 10° N 18:23:35 61° E 18:27:26 13° SSE
SPOT 3 Rocket 4.3 18:22:47 10° S 18:27:51 52° W 18:32:57 10° NNW
Okean 1 3.7 18:24:14 10° N 18:28:10 47° ENE 18:30:28 22° SE
ATLAS 3B R/B 3.8 18:27:32 18° SE 18:29:27 20° ESE 18:34:02 10° ENE
USA 234 3.6 18:23:26 12° E 18:29:31 61° NNE 18:35:56 10° NW
Cosmos 1867 3.8 18:25:53 10° SW 18:31:19 77° NW 18:36:49 10° NE
Cosmos 468 Rocket 4.1 18:26:26 10° NNW 18:31:45 68° ENE 18:35:20 21° SE
CARTOSAT-1 4.4 18:29:48 21° ESE 18:32:03 35° ENE 18:35:59 10° N
Cosmos 1933 Rocket 3.7 18:33:08 15° S 18:36:37 56° E 18:41:00 10° NNE
Meteor 2-4 Rocket 4.3 18:34:00 10° N 18:39:17 39° ENE 18:42:13 23° SE
SL-4 R/B 2.3 18:37:02 10° W 18:40:58 59° NNW 18:44:36 10° ENE
IGS 5A 3.4 18:39:20 21° SSE 18:42:01 84° ENE 18:46:11 10° NNW
MetOp-B 4.3 18:41:17 14° S 18:45:54 73° WSW 18:51:18 10° NNW
Iridium 4 Rocket 4.4 18:45:41 20° E 18:46:23 21° E 18:49:31 10° NNE
Cosmos 1869 Rocket 4.5 18:46:45 27° ESE 18:47:57 31° E 18:51:53 10° NNE
Cosmos 1954 Rocket 4.5 18:42:44 10° SSW 18:48:01 66° WNW 18:53:21 10° NNE
USA 238 DEB 3.6 18:41:38 10° SW 18:48:16 89° SE 18:55:16 10° NE
USA 238 3.6 18:41:45 10° SW 18:48:24 88° SE 18:55:22 10° NE
Spot 2 Rocket 3.5 18:45:22 19° SSE 18:49:04 87° W 18:54:11 10° NNW
SL-16 R/B 2.2 18:43:22 10° NNW 18:49:05 71° ENE 18:52:22 26° SE
Cosmos 2219 Rocket 4.1 18:45:20 10° N 18:49:20 19° NE 18:53:19 10° E
CZ-2C R/B 4.4 18:44:48 10° N 18:49:23 32° WNW 18:53:59 10° SW
Cosmos 1741 Rocket 4.0 18:47:38 11° S 18:52:36 58° ESE 18:57:48 10° NNE
BREEZE-M DEB (TANK) 2.8 18:50:37 10° W 18:53:31 78° N 19:01:46 10° E
Okean 1-7 3.0 18:53:03 10° N 18:57:22 66° ENE 18:59:08 34° SSE
CZ-4B DEB 4.4 18:56:45 44° SE 18:57:33 61° ENE 19:00:52 10° N
Meteor 1-18 Rocket 4.2 18:52:17 10° NNW 18:57:53 88° W 19:01:32 23° S
Cosmos 1703 Rocket 3.4 18:53:48 10° N 18:58:10 75° E 19:00:06 32° SSE
CENTAUR R/B 2.4 18:53:11 10° SSW 18:59:03 70° SE 19:06:05 10° NE
Cosmos 2082 Rocket 3.3 18:53:43 10° SW 18:59:10 46° NW 19:04:39 10° NNE
Cosmos 1570 Rocket 4.3 18:54:29 10° NNW 18:59:46 58° ENE 19:02:16 30° SE
Meteor 1-25 Rocket 4.4 18:54:12 10° SSW 18:59:46 76° WNW 19:05:27 10° N
Cosmos 1605 Rocket 4.1 18:56:22 10° SSW 19:02:29 75° W 19:08:35 10° N
Terra 2.3 19:01:13 30° ESE 19:03:04 46° ENE 19:07:38 10° N
Cosmos 2100 Rocket 4.2 19:00:45 26° SSE 19:03:56 49° E 19:09:49 10° NNE
Lacrosse 5 2.0 18:59:14 10° WNW 19:04:14 61° SW 19:06:26 32° SSE
Cosmos 1238 Rocket 3.1 19:05:20 21° SW 19:07:01 45° WNW 19:09:55 10° N
Cosmos 2322 Rocket 2.2 19:02:10 10° NNW 19:07:54 80° ENE 19:10:41 32° SE
Cosmos 2208 Rocket 4.2 19:03:14 10° NNW 19:08:27 56° ENE 19:10:35 33° SE
Cosmos 1763 Rocket 3.7 19:04:19 10° NNW 19:09:37 71° WSW 19:12:26 28° S
Cosmos 2173 Rocket 4.2 19:08:24 28° SSE 19:11:23 52° E 19:17:18 10° NNE
USA 276 2.0 19:11:37 10° WNW 19:14:46 72° SSW 19:14:46 72° SSW
Cosmos 2237 4.5 19:09:52 10° NNW 19:15:31 59° ENE 19:17:59 33° ESE
Cosmos 2360 Rocket 2.5 19:12:56 10° NNW 19:18:33 56° ENE 19:20:54 33° ESE
X-37B 2.0 19:16:09 10° W 19:18:09 27° SW 19:18:09 27° SW
Cosmos 2242 Rocket 4.4 19:17:38 10° NNW 19:21:54 47° W 19:24:16 23° SSW
Cosmos 2084 Rocket 3.3 19:17:47 10° SW 19:22:00 86° SE 19:26:19 10° NE
FALCON 9 DEB 4.5 19:19:35 10° W 19:22:55 39° N 19:25:31 15° ENE
Cosmos 1500 3.0 19:25:01 64° SE 19:25:20 69° E 19:29:06 10° NNE
Cosmos 44 3.4 19:21:34 10° NW 19:26:29 75° SW 19:28:10 42° SSE
Cosmos 1980 Rocket 4.2 19:22:37 10° NW 19:26:42 21° W 19:30:46 10° SSW
Cosmos 1459 Rocket 4.0 19:23:40 30° SSE 19:26:52 68° E 19:33:12 10° NNE
Cosmos 2016 Rocket 4.3 19:28:46 35° SE 19:31:02 51° E 19:37:11 10° NNE
SAR-Lupe-2 3.5 19:31:49 10° NNE 19:35:25 81° WNW 19:35:52 65° SW
Cosmos 1666 3.5 19:37:05 36° ENE 19:37:05 36° ENE 19:39:58 10° NNE
USA 267 3.2 19:29:52 10° NE 19:36:28 87° SE 19:43:01 10° SW
COSMOS 2428 4.0 19:32:13 10° NNW 19:37:20 32° NE 19:39:52 23° E
Cosmos 967 Rocket 4.4 19:32:32 10° NW 19:38:57 81° SW 19:41:23 40° SSE
NOSS 3-2 (A) 4.4 19:34:21 10° WSW 19:40:03 50° NW 19:46:39 10° NE
SPOT 5 3.0 19:40:40 41° SSW 19:41:53 57° W 19:46:15 10° NNW
Cosmos 1242 Rocket 3.6 19:39:37 10° N 19:42:36 33° ENE 19:42:36 33° ENE
Cosmos 2221 Rocket 3.6 19:38:58 10° N 19:43:27 68° E 19:44:04 60° SE
Cosmos 2237 Rocket 4.2 19:43:09 10° N 19:47:07 19° NE 19:50:41 11° E
SL-27 R/B 3.5 19:46:33 33° WSW 19:47:24 41° WNW 19:50:35 10° N
Cosmos 540 Rocket 3.7 19:43:20 10° NNW 19:48:28 63° WSW 19:49:56 44° SSW
Cosmos 1437 Rocket 4.3 19:45:38 10° NNW 19:48:55 28° W 19:49:58 24° WSW
NOSS 3-2 (C) 3.9 19:43:22 10° WSW 19:49:09 62° NW 19:55:51 10° NE
Lacrosse 4 Rocket 2.8 19:53:40 27° ENE 19:53:40 27° ENE 19:55:56 10° NE
Cosmos 2061 Rocket 3.9 19:52:31 43° SSE 19:54:38 74° E 20:00:50 10° NNE
Cosmos 2333 Rocket 2.8 19:50:21 10° NNW 19:55:57 48° NE 19:57:45 36° E
Cosmos 1378 Rocket 4.5 19:52:07 10° N 19:56:13 35° ENE 19:56:17 35° ENE
ERBS 4.2 19:53:54 10° NW 19:56:41 24° NNE 19:57:25 22° NE
ERS-1 Rocket 4.0 19:56:12 28° SW 19:58:11 39° W 20:02:54 10° NNW
Cosmos 1271 Rocket 4.1 19:57:28 10° N 20:00:19 28° NE 20:00:19 28° NE
Meteor 1-11 Rocket 3.6 20:00:05 50° S 20:01:37 77° E 20:07:25 10° NNE
Cosmos 2233 Rocket 4.4 20:01:24 42° ESE 20:02:38 48° E 20:08:40 10° NNE
Meteor 1-5 Rocket 4.4 20:00:11 32° SSW 20:03:03 74° WNW 20:09:00 10° N
Cosmos 1802 Rocket 4.0 20:00:36 36° SSW 20:03:29 83° W 20:09:51 10° N
Cosmos 1066 Rocket 4.2 19:59:05 10° N 20:04:47 70° ENE 20:05:53 55° SE
Cosmos 841 Rocket 4.2 20:01:12 10° NW 20:06:09 44° WSW 20:07:29 37° SW
USA 234 3.4 20:10:46 45° S 20:12:33 60° SW 20:19:02 10° WNW
Okean 3 4.2 20:11:55 10° NNW 20:16:02 45° W 20:16:26 43° WSW
Cosmos 1816 Rocket 4.4 20:10:37 10° N 20:16:54 84° W 20:18:35 51° S
Thor Agena Rocket 4.0 20:13:00 10° NNE 20:17:38 44° E 20:17:38 44° E
ATLAS 3B R/B 2.5 20:14:38 21° SW 20:19:15 89° ESE 20:25:57 10° NE
COSMOS 2487 4.0 20:21:58 32° NNE 20:21:58 32° NNE 20:23:55 10° NNE
SL-4 R/B 2.6 20:17:10 10° WNW 20:20:23 49° NNW 20:20:23 49° NNW
Spot 4 3.8 20:24:31 68° E 20:24:45 69° ENE 20:29:35 10° N
Iridium 4 Rocket 4.1 20:25:27 35° WSW 20:26:08 37° W 20:30:03 10° NNW
Meteor 1-23 Rocket 4.2 20:24:44 10° NNW 20:30:35 80° W 20:31:37 61° S
SL-16 R/B 3.9 20:28:30 10° NW 20:32:35 21° W 20:34:14 18° WSW
Cosmos 2219 Rocket 2.1 20:28:32 10° NNW 20:34:16 78° ENE 20:35:05 65° SE
Cosmos 1536 3.5 20:36:28 50° WNW 20:36:28 50° WNW 20:40:06 10° N
MOS 1-B Rocket 3.7 20:32:36 10° NNE 20:38:16 86° WNW 20:39:23 59° SSW
ATLAS 5 CENTAUR R/B 2.8 20:36:40 10° WNW 20:39:33 53° WSW 20:39:33 53° WSW
Terra 3.4 20:40:06 23° WSW 20:41:03 24° W 20:44:53 10° NW
Cosmos 2322 3.6 20:35:28 10° NNW 20:41:07 69° WSW 20:41:39 64° SSW
Cosmos 1674 Rocket 3.8 20:37:05 10° NNW 20:41:02 63° WNW 20:41:02 63° WNW
Tsikada Rocket 4.2 20:35:38 10° NNW 20:41:53 64° W 20:43:25 49° SSW
Cosmos 1833 4.4 20:42:36 42° SW 20:44:28 67° WNW 20:50:08 10° NNE
Lacrosse 5 4.2 20:44:14 10° W 20:45:36 12° WSW 20:45:36 12° WSW
Cosmos 1503 Rocket 4.3 20:48:42 55° E 20:48:42 55° E 20:53:34 10° NNE
Meteor 2-11 Rocket 4.3 20:48:23 65° SE 20:49:09 74° E 20:55:16 10° NNE
Cosmos 1842 4.5 20:45:23 10° N 20:48:12 37° NE 20:48:12 37° NE
EO 1 Del DPAF 4.5 20:46:20 10° NNE 20:48:44 37° NNE 20:48:44 37° NNE
Cosmos 489 Rocket 4.3 20:43:54 10° NNW 20:50:15 83° WSW 20:51:15 65° S
CENTAUR R/B 4.0 20:44:23 10° W 20:50:18 39° NNW 20:57:14 10° NE
Cosmos 2322 Rocket 4.0 20:47:30 10° WNW 20:51:14 18° W 20:52:29 17° WSW
Geosat 3.9 20:53:02 73° WSW 20:53:02 73° WSW 20:58:06 10° NNW
Cosmos 1486 Rocket 3.9 20:53:33 74° WSW 20:53:55 79° WNW 20:59:09 10° NNE
Cosmos 2333 4.5 20:50:11 10° NW 20:55:50 54° WSW 20:56:12 53° SW
Okean 2 4.1 20:52:26 10° N 20:55:39 49° NNE 20:55:39 49° NNE
ALOS 2 2.9 20:57:42 64° NNE 20:57:42 64° NNE 21:01:33 10° N
Cosmos 1733 Rocket 4.0 20:57:31 39° W 20:57:43 40° WNW 21:01:55 10° N
SL-16 R/B 4.1 20:56:39 10° N 21:01:14 24° NE 21:04:29 15° E
Cosmos 2360 Rocket 3.5 20:57:31 10° NW 21:02:11 27° WSW 21:02:39 26° WSW
Meteor 1-21 4.3 20:59:16 10° N 21:05:03 65° ENE 21:05:34 62° ESE
Cosmos 1975 4.0 21:07:59 40° NNE 21:07:59 40° NNE 21:10:44 10° NNE
Cosmos 773 Rocket 4.1 21:09:31 10° NNW 21:14:39 62° ENE 21:14:44 62° ENE
SL-24 DEB 4.5 21:11:13 10° N 21:15:29 65° NE 21:15:29 65° NE
Cosmos 968 Rocket 3.8 21:18:03 55° W 21:18:33 57° WNW 21:23:38 10° NNE
USA 267 4.1 21:12:58 10° ENE 21:19:12 49° NNW 21:25:27 10° W
Cosmos 2297 Rocket 3.3 21:20:13 31° E 21:20:13 31° E 21:24:24 10° NE
Meteor 2-9 Rocket 4.1 21:21:24 76° ESE 21:21:32 76° E 21:27:18 10° NNE
COSMOS 2428 3.0 21:16:19 10° NW 21:21:52 54° WSW 21:21:52 54° WSW
Helios 1A 3.8 21:22:59 47° NE 21:22:59 47° NE 21:26:24 10° N
Cosmos 1782 Rocket 4.1 21:23:22 54° NNE 21:23:22 54° NNE 21:26:47 10° N
Cosmos 44 Rocket 4.0 21:18:18 10° NW 21:22:15 46° W 21:22:15 46° W
Cosmos 1980 3.7 21:18:08 10° NNW 21:23:51 73° ENE 21:24:20 68° E
Cosmos 1538 Rocket 4.4 21:20:32 10° NNW 21:25:36 51° ENE 21:25:57 50° ENE
Cosmos 1743 4.3 21:28:20 31° NW 21:28:20 31° NW 21:31:11 10° N
Cosmos 1908 Rocket 4.4 21:30:25 44° NW 21:30:25 44° NW 21:34:09 10° N
Cosmos 2219 3.8 21:31:18 43° E 21:31:18 43° E 21:36:02 10° NE
Lacrosse 4 Rocket 3.1 21:29:56 27° WNW 21:30:47 29° NW 21:34:27 10° NNE
Cosmos 2237 Rocket 2.1 21:26:27 10° NNW 21:32:09 78° ENE 21:32:28 75° E
Cosmos 2333 Rocket 3.3 21:34:57 10° NW 21:39:44 33° W 21:39:44 33° W
Timation 2 Rocket 3.7 21:41:09 75° SSE 21:41:26 77° ESE 21:47:28 10° NNE
Meteor 1-12 Rocket 4.5 21:45:54 60° ESE 21:46:14 61° E 21:52:11 10° NNE
Cosmos 1975 Rocket 4.1 21:49:50 10° NNW 21:53:12 39° WNW 21:53:12 39° WNW
Cosmos 1464 Rocket 4.0 21:54:49 61° WSW 21:55:39 68° WNW 22:01:50 10° N
Cosmos 1300 Rocket 4.2 21:57:17 50° NNE 21:57:17 50° NNE 22:00:35 10° NNE
Cosmos 1674 4.5 21:55:54 10° N 21:58:19 28° NE 21:58:19 28° NE
CZ-2D R/B 4.1 22:02:26 10° NE 22:05:57 17° E 22:06:58 16° ESE
Nadezhda 4 Rocket 3.9 22:00:37 10° NNW 22:06:52 70° W 22:07:27 66° SW
Cosmos 2227 Rocket 2.2 22:09:37 66° ESE 22:09:37 66° ESE 22:15:10 10° NNE
Helios 1B rocket 3.7 22:05:51 10° NNE 22:08:43 36° ENE 22:08:43 36° ENE
ATLAS 3B R/B 4.2 22:04:54 10° W 22:10:44 32° NNW 22:16:40 10° NE
Okean 2 Rocket 3.5 22:12:54 60° NNW 22:12:54 60° NNW 22:16:42 10° N
Cosmos 1777 Rocket 3.9 22:12:29 84° NW 22:12:29 84° NW 22:17:45 10° NNE
Cosmos 1707 4.3 22:09:47 10° NNW 22:12:09 33° NW 22:12:09 33° NW
Okean 1 Rocket 4.2 22:14:30 36° ENE 22:14:30 36° ENE 22:17:54 10° NNE
Meteor 2-13 Rocket 4.3 22:09:53 10° N 22:16:02 83° E 22:16:50 69° SSE
SJ 16-02 2.7 22:18:08 30° ENE 22:18:08 30° ENE 22:21:14 10° NE
Cosmos 1025 Rocket 3.8 22:13:18 10° NNW 22:16:26 45° NW 22:16:26 45° NW
Cosmos 2219 Rocket 4.0 22:13:43 10° WNW 22:16:47 18° W 22:16:47 18° W
CZ-4 R/B 3.9 22:19:26 10° NNE 22:24:20 84° NE 22:24:20 84° NE
Cosmos 1092 Rocket 3.8 22:20:14 10° NNW 22:26:28 78° W 22:27:09 69° SSW
Cosmos 2034 Rocket 4.3 22:26:38 50° WSW 22:27:38 56° WNW 22:33:52 10° N
Cosmos 1626 3.9 22:25:39 10° N 22:28:26 27° ENE 22:28:26 27° ENE
Cosmos 1805 4.5 22:32:35 38° NE 22:32:35 38° NE 22:35:20 10° NNE
Cosmos 2344 4.4 22:23:09 10° NW 22:32:38 70° SW 22:39:29 32° SSE
Cosmos 2082 3.8 22:34:49 60° ESE 22:35:00 60° ESE 22:40:32 10° NNE
Cosmos 923 Rocket 3.9 22:33:17 10° NNW 22:38:40 90° ENE 22:38:48 85° SSE
Resurs 1-4 Rocket 3.2 22:38:53 10° NNE 22:43:38 33° E 22:44:27 31° ESE
Cosmos 2151 Rocket 4.3 22:45:26 46° NW 22:45:26 46° NW 22:49:10 10° N
SL-16 R/B 2.0 22:40:17 10° NNW 22:45:59 78° WSW 22:46:19 75° SSW
Cosmos 2263 Rocket 3.8 22:49:31 21° ESE 22:50:34 22° E 22:54:42 10° NE
SL-14 R/B 4.2 22:47:13 10° N 22:50:33 44° NE 22:50:33 44° NE
Cosmos 1892 Rocket 4.2 22:48:59 10° N 22:53:20 49° ENE 22:53:36 48° E
SL-16 R/B 2.8 22:52:56 36° SE 22:55:33 64° ENE 23:01:45 10° N
NOSS 3-1 (C) 3.5 22:57:24 52° SE 22:57:54 54° ESE 23:04:02 10° NE
CZ-4C R/B 4.4 22:58:23 37° ENE 22:58:23 37° ENE 23:01:33 10° N
USA 267 4.4 22:55:27 10° ENE 23:01:31 43° N 23:07:36 10° WNW
DELTA 2 DEB (DPAF) 4.2 23:02:23 73° E 23:02:28 73° ENE 23:06:55 10° N
Cosmos 1655 Rocket 4.2 22:56:24 10° N 23:02:39 68° ENE 23:04:51 41° SSE
Cosmos 2297 Rocket 2.8 23:02:01 40° W 23:03:18 47° NW 23:08:47 10° NNE
Meteor 1-15 Rocket 4.2 23:05:38 58° WSW 23:06:21 64° WNW 23:11:55 10° N
Cosmos 1461 3.0 23:13:38 75° NW 23:13:38 75° NW 23:18:12 10° NE
Cosmos 1607 4.3 23:07:38 10° NW 23:13:36 44° WSW 23:13:36 44° WSW
Cosmos 2219 4.3 23:13:13 29° W 23:15:00 35° NW 23:20:09 10° NNE
Cosmos 2237 Rocket 4.0 23:11:46 10° WNW 23:14:16 17° W 23:14:16 17° W
Meteor 1-24 Rocket 3.4 23:10:36 10° NNW 23:16:02 83° W 23:16:49 65° S
ADEOS II 3.7 23:12:58 10° NE 23:17:24 27° E 23:19:37 20° SE
IRAS Rocket 4.2 23:16:03 51° SSE 23:17:34 88° ENE 23:23:13 10° NNW
Cosmos 2026 Rocket 4.4 23:14:41 10° NNW 23:20:22 42° W 23:21:06 40° WSW
Cosmos 2279 Rocket 3.9 23:20:54 53° SW 23:22:24 73° W 23:28:38 10° N
BREEZE-M TANK 3.7 23:25:51 33° SE 23:25:51 33° SE 23:29:25 10° ESE
Timation 1 Rocket 4.5 23:23:24 48° SSE 23:24:51 62° ESE 23:30:44 10° NE
Cosmos 1937 Rocket 3.7 23:24:35 53° SSE 23:25:34 65° ESE 23:30:51 10° NNE
Cosmos 1603 4.0 23:20:43 10° NNW 23:26:27 68° ENE 23:30:31 20° SE
Cosmos 1726 3.8 23:27:44 24° ESE 23:28:14 25° E 23:31:15 10° NE
Cosmos 1544 Rocket 4.1 23:28:26 44° SE 23:29:11 50° E 23:33:31 10° NNE
Cosmos 2292 Rocket 4.4 23:22:02 10° N 23:29:24 89° E 23:31:25 45° S
GEOS 3 Rocket 3.9 23:24:25 10° NE 23:29:47 60° SE 23:30:53 49° S
Cosmos 990 Rocket 3.9 23:29:02 63° SW 23:29:51 82° WNW 23:35:03 10° NNE
Cosmos 2180 Rocket 4.4 23:28:40 51° SSW 23:30:21 80° W 23:36:32 10° N
Cosmos 2112 Rocket 4.2 23:27:22 10° NNW 23:32:21 50° WSW 23:32:21 50° WSW
USA 229 DEB 3.6 23:32:46 46° SSW 23:34:53 80° SE 23:41:49 10° NE
USA 229 3.6 23:32:52 47° SSW 23:34:58 79° SE 23:41:52 10° NE
CZ-4B R/B 4.1 23:31:51 10° NNE 23:36:25 45° E 23:37:49 35° SE
Cosmos 1758 3.6 23:36:38 55° ESE 23:36:57 57° E 23:40:53 10° NNE
Cosmos 1340 Rocket 2.9 23:37:29 65° ESE 23:37:37 66° E 23:41:32 10° NNE
COBE Rocket 4.0 23:36:41 38° SE 23:38:18 65° ENE 23:42:56 10° N
Cosmos 1898 Rocket 3.5 23:39:48 55° SW 23:40:52 73° WNW 23:46:06 10° NNE
MOZ.5/SAFIR/RUBIN 5/SL-8 4.3 23:42:13 43° W 23:42:13 43° W 23:46:35 10° NNW
Helios 1B rocket 4.2 23:41:47 10° NNW 23:44:48 20° WNW 23:45:01 20° WNW
NOSS 2-3 (C) 3.7 23:44:18 57° SSE 23:44:52 63° SE 23:49:52 10° NE
NOSS 3-1 (A) 3.3 23:44:33 47° SSW 23:46:11 70° SE 23:52:35 10° NE
Cosmos 1943 3.2 23:40:33 10° NNW 23:46:12 79° ENE 23:50:49 16° SSE
CZ-2D R/B 2.1 23:41:08 10° NNE 23:46:39 80° WNW 23:48:16 47° SSW
ARIANE 5 R/B 4.3 23:42:53 10° NE 23:47:17 27° E 23:50:53 13° SE
Cosmos 1680 Rocket 4.4 23:43:11 10° NW 23:47:20 32° W 23:47:20 32° W
Meteor 2-5 Rocket 4.3 23:42:49 10° NNW 23:47:53 36° W 23:48:23 35° WSW
Cosmos 1602 Rocket 4.3 23:44:27 10° N 23:48:41 48° ENE 23:50:50 26° SE
Meteor 1-22 Rocket 4.3 23:50:36 44° WSW 23:51:47 53° WNW 23:57:05 10° N
Exosat Rocket 4.3 23:48:30 34° SSW 23:52:17 78° ESE 23:58:19 10° NNE
Cosmos 1953 3.2 23:52:43 35° SE 23:53:50 45° E 23:57:44 10° NNE
Cosmos 2227 Rocket 3.7 23:51:25 19° W 23:54:04 27° NW 23:58:52 10° NNE
SJ 16-02 2.5 23:55:07 28° WNW 23:55:50 30° WNW 23:59:45 10° N
